This is the latest recevied weather packets stored in our database for station/object WD9EKA. If no packets are shown the sender has not sent any weather packets the latest 10 day(s).
| Time | Temp. | Humidity | Pressure | Rain* | Wind** | Luminosity | Snow |
|---|---|---|---|---|---|---|---|
| 1787448873 | 20° C | 94% | 1009.7 hPa | 0 mm | - | - | - |
| 1787448567 | 20° C | 93% | 1009.9 hPa | 0 mm | - | - | - |
| 1787448247 | 20.56° C | 92% | 1009.9 hPa | 0 mm | - | - | - |
| 1787447926 | 21.11° C | 91% | 1009.9 hPa | 0 mm | - | - | - |
| 1787447607 | 21.11° C | 90% | 1009.6 hPa | 0 mm | - | - | - |
| 1787447287 | 21.11° C | 89% | 1009.8 hPa | 0 mm | - | - | - |
| 1787446967 | 21.67° C | 88% | 1009.7 hPa | 0 mm | - | - | - |
| 1787446652 | 21.67° C | 88% | 1009.6 hPa | 0 mm | - | - | - |
| 1787446343 | 22.22° C | 87% | 1009.5 hPa | 0 mm | - | - | - |
| 1787446023 | 22.22° C | 87% | 1009.3 hPa | 0 mm | - | - | - |
| 1787445692 | 22.78° C | 85% | 1009.4 hPa | 0 mm | - | - | - |
| 1787445383 | 22.22° C | 87% | 1009.6 hPa | 0 mm | - | - | - |
| 1787445063 | 22.78° C | 87% | 1009.3 hPa | 0 mm | - | - | - |
| 1787444732 | 23.33° C | 86% | 1009.3 hPa | 0 mm | - | - | - |
| 1787444423 | 23.89° C | 84% | 1009.4 hPa | 0 mm | - | - | - |
| 1787444104 | 24.44° C | 81% | 1009.3 hPa | 0 mm | - | - | - |
| 1787443783 | 25° C | 79% | 1009.2 hPa | 0 mm | - | - | - |
| 1787443463 | 25.56° C | 77% | 1009.3 hPa | 0 mm | - | - | - |
| 1787443143 | 26.11° C | 77% | 1009.5 hPa | 0 mm | - | - | - |
| 1787442823 | 26.11° C | 74% | 1009.6 hPa | 0 mm | - | - | - |
| 1787442503 | 26.67° C | 72% | 1009.5 hPa | 0 mm | - | - | - |
| 1787442183 | 26.67° C | 73% | 1009.4 hPa | 0 mm | - | - | - |
| 1787441863 | 26.11° C | 70% | 1009.4 hPa | 0 mm | - | - | - |
| 1787441543 | 26.11° C | 72% | 1009.4 hPa | 0 mm | - | - | - |
| 1787441223 | 26.11° C | 73% | 1009.5 hPa | 0 mm | - | - | - |
* Rain latest hour (hover to see other rain measurements)
** Current wind speed in m/s (hover to see current wind gust speed)